星链-36280(STARLINK-36280)

导读

STARLINK-36280是美国太空探索技术公司SpaceX星链互联网卫星星座的一员,于2025年12月17日由美国发射升空。星链计划旨在构建全球卫星互联网覆盖网络,为全球偏远地区、海洋空域等提供高速低延迟的宽带接入服务,该卫星的入轨进一步扩充了星链星座的组网规模与服务能力。

基本信息
目录编号:
67211
目录名称:
STARLINK-36280
国际标识:
2025-304V
轨道中心:
EARTH
卫星名称:
星链-36280
卫星全名:
星链-36280(STARLINK-36280)
卫星状态:
在轨 (已飞行269 天)
发射日期:
2025-12-17 UTC
国别 :
美国 (US)
星等 :
--
该卫星已列入 空间交会检测服务 Space Conjunction Data Service (SCDS) ,当前飞行风险评估等级: 无高风险
轨道信息
数据来源 国际轨道数据
星历时间: 2026-09-12T12:51:25+0800
11小时前
查看轨道信息
半长轴: 6950.182km
偏心率: 0.0002389
轨道倾角: 70.001°
近地点辐角 266.682°
升交点赤经 64.146°
平近点角 93.407°
近地点: 570.384km
远地点: 573.706km
周期: 96.107分钟
每日圈数: 14.983338
详细信息
固有亮度:
5
最大亮度:
2.5
卫星平台:
Starlink V1.0
覆盖范围:
全球
运营商:
太空探索技术公司
运营商所在国:
美国
制造商(研发单位):
太空探索技术公司
制造商所在国:
美国
使用方式:
暂无
卫星简介
Starlink 计划是 SpaceX 推出的全球卫星互联网项目,通过发射低轨道卫星,为全球尤其是偏远地区提供高速、低延迟的互联网服务。自 2019 年起,Starlink 已部署数千颗卫星,旨在缩小全球数字鸿沟,推动互联网普及。该项目还为军事、航空等行业提供通信支持,带来广泛经济效益。
2D轨道图
3D轨道图
轨道高度分析图
轨道倾角分析图
轨道综合分析图
查看轨道综合分析图
交会数据列表
事件ID 空间交会对象 最接近时刻(TCA) 交会距离 交会风险概率(CRP) 交会风险指数(CRI) 操作
CDM_260912-201005-890806-721121
2026-09-12T
20:10:23+0000
2.027 km
极远距离
2.525083E-6 低风险 0.43
CDM_260913-032205-890806-721121
2026-09-13T
03:22:54+0000
2.767 km
极远距离
1.370625E-6 低风险 0.38
与全量物体交会距离演化趋势
与全量物体交会风险概率演化趋势